User: anonymous   Login
Location: Davayat
(45.9471°N, 3.1105°E)
Time: 15:58:53
(UTC+00:00)
Language:

Okean-O - Orbit

View from above orbital plane
View from above orbital plane
View from above satellite
View from above satellite

Ground track
Ground track

The orbit data is extracted from the following two-line orbital elements,

1 25860U 99039A   21059.50826962  .00000056  00000-0  15636-4 0  9992
2 25860  98.1956  88.6941 0001793 103.5372 256.6037 14.76714488163399
Epoch (UTC): 28 February 2021 12:11:54
Eccentricity: 0.0001793
inclination: 98.1956°
perigee height: 638 km
apogee height: 641 km
right ascension of ascending node: 88.6941°
argument of perigee: 103.5372°
revolutions per day: 14.76714488
mean anomaly at epoch: 256.6037°
orbit number at epoch: 16339

The dashed part of the orbit path shows where the satellite is in the earth's shadow,  

DLR